Date,TemperatureHighF,TemperatureAvgF,TemperatureLowF,DewpointHighF,DewpointAvgF,DewpointLowF,HumidityHigh,HumidityAvg,HumidityLow,PressureMaxIn,PressureMinIn,WindSpeedMaxMPH,WindSpeedAvgMPH,GustSpeedMaxMPH,PrecipitationSumIn
2013-1-1,52.0,49.3,44.1,47.5,31.6,-5.5,88,58,10,30.11,29.93,2,0,5,0.26
2013-1-2,51.6,49.1,45.5,48.9,42.4,34.8,92,78,60,30.15,29.86,2,0,6,0.16
2013-1-3,45.3,42.2,31.8,37.1,34.1,25.9,79,73,64,30.25,30.08,2,0,4,0.01
2013-1-4,56.1,36.2,23.4,38.4,14.7,-4.8,83,53,10,30.32,30.20,4,0,10,0.00
2013-1-5,53.8,36.8,21.6,28.9,12.4,-5.4,74,46,10,30.38,30.25,2,0,4,0.00
2013-1-6,52.5,44.2,33.8,32.0,29.1,25.8,73,56,38,30.22,30.04,3,0,4,0.01
2013-1-7,58.8,38.2,25.2,34.0,15.1,-2.7,80,50,10,30.40,30.18,3,0,5,0.00
2013-1-8,59.2,45.0,27.3,36.6,25.0,6.2,72,50,13,30.41,30.32,2,0,4,0.00
2013-1-9,72.5,52.5,34.7,42.1,31.9,12.1,80,53,10,30.43,30.33,2,0,4,0.00
2013-1-10,72.0,57.4,43.5,48.3,34.9,10.3,81,50,10,30.46,30.35,3,0,8,0.00
2013-1-11,60.4,54.2,49.5,52.0,47.8,44.2,84,79,66,30.34,30.14,2,0,5,0.01
2013-1-12,77.7,61.7,50.7,64.1,51.5,42.7,97,73,29,30.16,30.07,4,0,6,0.01
2013-1-13,77.4,62.0,50.4,58.0,49.4,45.9,91,67,35,30.14,30.03,4,0,8,0.00
2013-1-14,78.3,67.2,61.5,55.6,51.9,46.8,72,59,36,30.12,30.03,3,0,7,0.00
2013-1-15,66.0,58.9,49.5,55.4,48.2,41.5,81,68,46,30.14,30.02,2,0,6,0.00
2013-1-16,53.2,49.8,45.9,50.4,45.3,41.0,90,84,82,30.03,29.95,2,0,4,0.16
2013-1-17,53.6,48.6,33.3,51.9,46.4,29.7,95,92,86,30.15,29.71,4,0,17,1.15
2013-1-18,53.1,37.7,28.2,39.7,18.6,-6.1,93,60,10,30.49,30.15,3,0,7,0.03
2013-1-19,59.4,37.2,21.4,28.2,13.6,-4.1,79,50,10,30.46,30.19,3,0,5,0.00
2013-1-20,67.1,44.1,28.2,33.0,17.5,-0.2,78,47,10,30.16,29.99,3,0,8,0.00
2013-1-21,66.4,44.3,26.4,35.4,12.1,-9.0,76,40,10,30.07,29.90,4,0,8,0.00
2013-1-22,50.9,35.5,25.3,12.2,-3.5,-20.7,55,23,10,30.22,29.99,4,0,11,0.00
2013-1-23,48.0,32.0,17.8,11.4,-2.1,-21.4,60,29,10,30.34,30.09,4,0,7,0.00
2013-1-24,60.4,38.1,27.1,29.0,2.0,-22.3,67,29,10,30.45,29.97,4,0,11,0.00
2013-1-25,27.1,24.6,19.4,15.4,-4.4,-25.6,63,33,10,30.48,30.11,2,0,4,0.00
2013-1-26,48.0,32.1,22.6,27.5,16.2,5.7,70,55,18,30.31,30.08,2,0,5,0.01
2013-1-27,48.6,35.8,25.3,23.0,10.0,-7.6,73,43,10,30.52,30.32,3,0,4,0.00
2013-1-28,49.1,41.5,29.5,36.2,21.8,12.6,65,46,26,30.46,30.25,2,0,3,0.00
2013-1-29,76.5,54.9,34.9,50.1,37.6,27.8,79,56,25,30.25,30.05,4,0,8,0.00
2013-1-30,78.1,69.3,0.0,58.1,51.3,36.2,74,55,23,30.03,29.47,8,2,17,0.06
2013-1-31,53.8,45.8,34.9,18.4,1.9,-10.1,42,18,10,30.05,29.85,6,1,10,0.00
2013-2-1,49.3,39.3,23.9,8.4,-6.2,-22.3,32,15,10,30.34,29.94,4,1,11,0.00
2013-2-2,51.3,34.8,17.8,28.4,-1.0,-19.4,65,28,10,30.36,30.05,6,1,11,0.01
2013-2-3,57.4,41.8,28.6,29.4,12.8,-8.4,75,40,10,30.03,29.84,4,0,10,0.01
2013-2-4,53.4,36.6,23.0,20.3,6.0,-9.1,62,35,10,30.13,29.99,3,0,7,0.00
2013-2-5,66.4,47.0,27.3,29.7,15.1,-1.6,65,35,10,30.00,29.87,6,1,13,0.00
2013-2-6,71.4,48.1,31.5,40.3,16.5,-5.1,75,39,10,30.20,29.97,4,0,5,0.00
2013-2-7,48.2,43.2,36.7,34.2,23.4,6.7,75,47,23,30.24,29.95,3,0,11,0.31
2013-2-8,64.0,49.0,39.4,36.6,27.4,-1.2,77,50,10,30.03,29.84,4,1,8,0.03
2013-2-9,64.8,43.5,26.2,28.7,9.0,-11.2,68,32,10,30.32,30.08,2,0,6,0.00
2013-2-10,63.9,45.7,28.0,39.5,13.3,-5.7,68,34,10,30.42,30.19,3,0,8,0.14
2013-2-11,62.4,57.9,50.7,56.9,51.7,43.1,88,80,65,30.18,29.94,4,1,8,0.09
2013-2-12,68.2,53.7,44.6,47.8,29.9,1.9,85,52,10,30.10,29.91,3,0,8,0.11
2013-2-13,50.0,46.9,44.6,44.5,40.8,37.8,85,79,71,29.92,29.64,4,0,8,0.07
2013-2-14,54.0,40.6,28.4,36.9,22.0,2.4,82,55,13,30.06,29.86,3,0,5,0.01
2013-2-15,68.5,44.6,26.4,39.1,16.7,-1.5,78,45,10,30.08,29.91,4,0,6,0.00
2013-2-16,43.0,36.6,27.3,29.7,25.1,19.6,74,64,41,29.96,29.81,4,0,8,0.26
2013-2-17,43.7,30.5,19.8,20.0,7.2,-12.9,72,46,10,30.23,29.98,4,0,7,0.31
2013-2-18,58.3,37.3,17.6,28.6,5.9,-9.0,68,37,10,30.37,30.23,4,0,6,0.00
2013-2-19,51.8,38.6,29.1,41.2,28.2,11.2,81,67,35,30.21,29.88,4,0,7,0.24
2013-2-20,59.4,40.2,23.0,32.3,11.0,-7.9,78,44,10,30.10,30.00,3,0,5,0.01
2013-2-21,63.0,42.8,25.0,19.5,7.0,-11.1,60,29,10,30.20,30.06,3,0,8,0.00
2013-2-22,47.1,40.0,37.0,30.4,21.5,-8.9,76,55,10,30.26,30.11,2,0,7,0.21
2013-2-23,44.6,40.7,36.7,38.5,34.8,30.5,84,79,77,30.10,29.82,2,0,4,0.35
2013-2-24,70.3,51.5,38.3,45.3,28.7,4.2,92,56,10,29.99,29.81,3,0,5,0.00
2013-2-25,43.3,40.5,35.2,27.6,11.0,2.4,69,32,19,30.15,29.99,4,0,12,0.00
2013-2-26,51.1,41.7,34.5,47.4,33.0,7.1,87,74,26,30.03,29.54,4,0,8,0.64
2013-2-27,61.0,48.1,36.1,38.9,23.7,2.5,86,47,10,29.81,29.66,4,1,8,0.00
2013-2-28,53.1,43.2,31.5,30.5,10.0,-6.1,71,33,10,29.87,29.72,4,0,8,0.00
2013-3-1,56.8,39.7,24.4,26.2,8.1,-6.3,69,35,10,29.92,29.83,3,0,6,0.00
2013-3-2,50.4,40.3,37.0,26.8,20.8,6.1,60,47,18,29.91,29.81,3,0,5,0.00
2013-3-3,51.3,36.2,21.7,18.1,-1.1,-17.2,65,27,10,29.99,29.86,4,0,8,0.00
2013-3-4,60.3,43.4,19.9,12.2,-0.8,-13.4,56,18,10,30.13,29.99,4,0,7,0.00
2013-3-5,65.8,47.3,31.1,48.6,25.6,10.4,82,46,16,30.06,29.60,4,0,8,0.21
2013-3-6,54.5,45.2,35.6,42.4,5.4,-10.8,73,24,10,30.07,29.59,5,1,13,0.00
2013-3-7,61.3,42.3,24.6,22.1,5.8,-7.6,63,29,10,30.22,30.09,3,0,9,0.00
2013-3-8,62.1,43.1,25.3,15.5,3.4,-10.5,54,24,10,30.30,30.17,4,0,8,0.00
2013-3-9,68.2,46.2,25.7,23.1,8.9,-4.9,61,29,10,30.33,30.20,3,0,6,0.00
2013-3-10,72.3,51.4,30.7,28.6,15.2,-0.8,64,32,10,30.27,30.14,4,0,7,0.00
2013-3-11,72.3,55.7,37.6,45.2,19.8,-8.3,59,29,10,30.19,29.85,5,1,12,0.01
2013-3-12,75.9,63.7,54.5,56.7,36.5,-1.1,86,50,10,29.92,29.75,4,1,12,0.38
2013-3-13,64.0,47.9,29.8,34.6,8.1,-10.6,70,27,10,30.11,29.94,6,1,11,0.00
2013-3-14,58.6,41.5,25.2,10.3,-1.2,-14.0,47,19,10,30.27,30.12,4,0,8,0.00
2013-3-15,70.9,47.2,25.5,22.8,8.9,-5.1,59,28,10,30.20,29.90,6,1,9,0.00
2013-3-16,81.9,67.1,54.3,21.5,15.6,7.0,26,15,10,29.91,29.73,6,2,13,0.00
2013-3-17,81.5,64.1,47.5,32.0,19.2,2.4,48,21,10,30.05,29.85,4,1,9,0.00
2013-3-18,49.3,45.6,41.5,37.3,32.8,26.2,74,62,41,30.11,29.84,3,0,8,0.34
2013-3-19,72.9,54.4,42.3,45.2,24.2,-5.6,86,46,10,30.00,29.82,6,1,9,0.01
2013-3-20,60.8,47.1,33.3,20.4,4.7,-10.0,49,21,10,30.11,29.77,3,0,8,0.00
2013-3-21,53.8,42.4,27.7,15.3,-4.3,-17.6,45,15,10,29.92,29.76,5,1,11,0.00
2013-3-22,56.7,39.4,23.2,8.1,-5.3,-19.1,46,17,10,30.08,29.95,4,0,7,0.00
2013-3-23,49.8,42.6,35.8,33.1,25.3,4.0,67,51,24,30.03,29.89,2,0,4,0.07
2013-3-24,43.5,41.6,38.5,36.3,34.2,29.5,78,75,70,29.89,29.54,3,0,8,0.77
2013-3-25,52.2,43.2,36.9,35.6,12.0,-10.8,81,40,10,29.87,29.53,6,1,15,0.01
2013-3-26,51.6,40.3,27.0,12.9,-0.3,-9.4,50,22,10,30.14,29.89,4,0,9,0.00
2013-3-27,60.6,40.4,23.9,19.9,3.0,-13.7,60,27,10,30.23,30.14,4,0,8,0.00
2013-3-28,63.3,42.9,23.5,21.0,4.2,-12.5,60,27,10,30.28,30.16,5,0,9,0.00
2013-3-29,66.9,46.6,25.0,24.5,7.2,-3.7,60,27,10,30.33,30.17,4,0,7,0.00
2013-3-30,71.8,56.4,45.5,45.3,24.2,5.4,76,38,10,30.21,30.04,3,0,6,0.07
2013-3-31,75.4,60.9,50.5,50.1,37.8,13.6,79,49,10,30.05,29.81,5,1,11,0.20
2013-4-1,79.0,65.7,55.0,57.9,32.9,4.6,84,42,10,29.91,29.82,4,0,11,0.14
2013-4-2,71.1,54.1,37.8,31.1,16.7,-0.4,68,31,10,30.14,29.93,4,0,8,0.00
2013-4-3,65.8,56.3,48.6,21.8,0.7,-5.5,29,10,10,30.25,30.08,4,1,10,0.00
2013-4-4,49.5,43.4,38.5,33.3,22.5,-5.8,76,50,10,30.24,29.92,3,0,8,0.72
2013-4-5,67.8,49.6,37.8,38.1,28.6,5.9,77,53,10,30.01,29.88,2,0,6,0.01
2013-4-6,76.5,54.5,32.2,39.4,19.2,3.2,78,37,10,30.20,30.02,3,0,7,0.00
2013-4-7,77.0,58.8,37.4,39.0,21.6,11.0,63,30,10,30.25,30.08,4,0,7,0.01
2013-4-8,83.5,66.1,48.7,48.9,31.7,12.3,71,36,10,30.17,30.03,4,1,10,0.02
2013-4-9,87.8,69.8,50.9,51.3,35.3,17.1,73,36,10,30.19,30.06,4,0,6,0.01
2013-4-10,91.4,72.4,54.5,53.7,37.2,19.7,75,37,10,30.11,29.94,4,0,9,0.01
2013-4-11,86.9,72.3,60.3,57.5,46.4,27.5,76,45,12,29.97,29.75,3,1,6,0.01
2013-4-12,86.0,72.0,61.5,66.6,44.9,8.6,90,50,10,29.78,29.63,5,1,13,0.74
2013-4-13,84.0,63.4,41.9,44.8,24.0,7.7,77,32,10,29.98,29.81,3,0,6,0.00
2013-4-14,80.6,61.9,42.6,47.8,28.1,11.2,76,39,10,30.07,29.96,3,0,6,0.00
2013-4-15,77.4,66.2,55.4,55.1,46.7,35.8,77,52,23,30.15,29.95,2,0,4,0.01
2013-4-16,86.4,69.3,57.2,58.5,45.8,21.4,80,50,10,30.27,30.15,2,0,4,0.00
2013-4-17,86.9,70.1,53.2,57.7,45.4,22.5,80,50,10,30.24,30.06,2,0,6,0.00
2013-4-18,84.6,71.5,60.4,57.9,46.4,23.1,75,46,12,30.14,29.97,2,0,7,0.00
2013-4-19,83.5,70.5,56.3,60.1,55.6,46.7,79,61,30,29.98,29.73,3,0,8,0.11
2013-4-20,73.6,56.0,43.3,44.2,23.6,-0.2,75,39,10,30.22,29.88,2,0,7,0.00
2013-4-21,70.2,52.1,36.0,37.3,20.6,4.6,75,39,10,30.40,30.23,4,0,9,0.00
2013-4-22,73.9,53.1,41.4,31.0,15.9,-4.4,56,29,10,30.38,30.19,3,0,8,0.01
2013-4-23,77.7,56.6,43.5,34.6,30.4,14.7,59,40,10,30.24,30.10,2,0,4,0.00
2013-4-24,78.3,61.8,45.1,48.9,38.2,20.8,77,49,12,30.14,29.99,3,0,8,0.00
2013-4-25,83.5,63.5,47.8,51.0,28.9,5.0,67,35,10,30.24,30.03,2,0,5,0.01
2013-4-26,81.1,58.4,39.6,38.4,23.5,3.6,68,36,10,30.40,30.23,4,0,6,0.00
2013-4-27,70.9,58.5,52.7,49.8,41.0,15.2,76,56,14,30.35,30.24,3,0,6,0.37
2013-4-28,62.8,57.6,54.1,57.2,52.3,48.1,91,82,77,30.23,30.03,2,0,4,1.29
2013-4-29,78.6,63.9,57.7,67.6,58.1,51.0,100,84,40,30.04,29.92,2,0,3,0.27
2013-4-30,84.6,65.1,57.0,62.7,54.6,33.7,95,73,18,30.12,29.96,2,0,4,0.00
2013-5-1,67.8,60.1,52.0,53.2,49.4,45.5,85,69,50,30.24,30.13,2,0,7,0.01
2013-5-2,66.2,60.5,57.9,56.0,53.6,50.9,88,78,64,30.26,30.18,2,0,6,0.07
2013-5-3,72.3,61.4,54.3,53.5,45.6,33.1,82,59,25,30.19,30.07,3,0,13,0.01
2013-5-4,66.9,57.2,50.4,41.2,36.8,29.7,59,47,32,30.10,29.95,2,0,8,0.00
2013-5-5,61.0,56.5,53.2,57.6,47.6,41.1,89,73,55,29.98,29.83,2,0,7,0.26
2013-5-6,78.8,64.2,55.6,61.9,48.9,14.4,96,67,10,29.87,29.80,2,0,7,0.27
2013-5-7,73.9,57.4,42.4,49.5,40.4,26.8,84,57,19,29.93,29.85,2,0,3,0.02
2013-5-8,77.7,63.0,49.8,53.6,43.9,16.7,84,56,10,29.99,29.91,3,0,7,0.00
2013-5-9,91.2,67.2,50.2,58.8,40.1,18.9,85,49,10,30.06,29.97,2,0,4,0.00
2013-5-10,85.1,64.4,52.7,59.7,46.8,21.7,82,61,10,30.06,30.00,2,0,4,0.00
2013-5-11,81.9,72.2,63.7,55.0,49.5,38.9,64,47,23,29.96,29.81,2,0,5,0.02
2013-5-12,85.6,68.0,58.1,54.2,33.7,9.2,75,37,10,29.99,29.82,2,0,4,0.00
2013-5-13,81.1,57.0,41.9,37.8,20.8,3.6,68,33,10,30.16,30.02,2,0,4,0.00
2013-5-14,83.7,57.4,37.4,38.4,21.6,3.9,72,35,10,30.24,30.07,2,0,6,0.00
2013-5-15,97.5,73.0,55.0,48.5,33.6,21.5,55,28,10,30.09,29.92,2,0,4,0.00
2013-5-16,86.2,72.1,57.9,53.8,45.4,22.8,69,42,10,30.01,29.93,2,0,4,0.00
2013-5-17,92.1,72.2,56.3,57.6,44.4,22.8,77,46,10,30.07,29.99,2,0,4,0.00
2013-5-18,80.2,69.4,61.7,62.6,56.5,47.8,77,65,33,30.13,30.05,2,0,4,0.04
2013-5-19,78.1,69.6,65.8,70.8,63.8,58.8,89,82,62,30.11,30.01,1,0,3,0.43
2013-5-20,87.6,73.2,66.7,72.5,65.5,52.3,100,80,31,30.10,29.98,1,0,3,0.00
2013-5-21,86.5,71.5,64.4,70.6,65.3,59.8,96,83,45,30.04,29.93,3,0,7,0.68
2013-5-22,92.5,74.6,66.2,72.0,62.4,40.2,100,73,17,30.01,29.86,2,0,4,0.00
2013-5-23,91.4,72.0,64.8,68.5,62.2,49.6,94,74,26,29.95,29.81,2,0,3,0.09
2013-5-24,84.4,68.5,52.2,61.9,39.1,7.5,91,49,10,30.15,29.85,2,0,8,0.00
2013-5-25,88.7,60.4,39.9,47.6,28.9,7.8,82,43,10,30.30,30.13,2,0,5,0.00
2013-5-26,89.1,64.7,52.5,45.3,31.1,11.4,74,38,10,30.27,30.15,2,0,4,0.00
2013-5-27,93.6,68.0,50.2,57.2,39.9,19.2,84,48,10,30.25,30.12,2,0,3,0.00
2013-5-28,92.5,73.5,60.3,61.6,51.2,25.8,82,52,10,30.23,30.12,2,0,4,0.00
2013-5-29,97.0,73.4,57.0,61.3,48.0,24.8,81,49,10,30.24,30.13,2,0,6,0.00
2013-5-30,95.7,73.4,58.1,63.0,48.6,24.6,84,52,10,30.26,30.13,2,0,6,0.00
2013-5-31,97.2,75.9,62.4,64.4,53.2,27.9,82,54,10,30.23,30.08,2,0,4,0.00
2013-6-1,96.4,77.3,65.5,64.6,52.6,26.7,82,50,10,30.13,30.00,2,0,4,0.00
2013-6-2,93.9,76.3,67.3,63.7,56.2,34.1,82,54,13,30.05,29.87,2,0,6,0.74
2013-6-3,93.4,74.9,67.8,73.8,66.1,50.8,97,77,26,29.94,29.82,1,0,4,0.13
2013-6-4,93.4,75.1,64.8,67.7,60.7,42.0,93,66,18,30.03,29.92,2,0,4,0.00
2013-6-5,86.0,73.4,68.5,68.2,63.1,58.6,90,71,41,30.06,29.96,2,0,4,0.13
2013-6-6,77.2,72.4,69.6,74.5,70.5,67.2,100,94,84,29.96,29.79,1,0,3,0.48
2013-6-7,88.3,72.1,66.9,76.0,69.6,63.9,100,93,49,29.80,29.58,2,0,8,0.63
2013-6-8,92.5,74.2,66.6,75.3,66.7,52.5,99,82,28,30.08,29.83,2,0,4,0.10
2013-6-9,87.8,72.9,64.0,75.9,66.2,57.9,100,83,38,30.14,30.05,2,0,4,0.04
2013-6-10,81.9,73.7,70.0,78.9,72.6,69.7,100,96,74,30.08,29.90,2,0,7,0.40
2013-6-11,100.4,77.4,68.4,74.9,62.9,28.8,100,72,10,29.98,29.90,2,0,4,0.01
2013-6-12,95.2,77.1,63.1,75.8,66.2,57.0,100,74,32,29.99,29.89,1,0,3,0.00
2013-6-13,99.1,80.9,70.5,77.8,63.0,32.3,100,65,11,29.88,29.66,2,0,7,0.00
2013-6-14,91.2,73.4,61.5,66.0,49.1,21.3,92,55,10,30.00,29.75,2,0,5,0.18
2013-6-15,95.7,71.1,55.9,64.7,51.6,25.9,94,60,10,30.12,30.00,2,0,4,0.22
2013-6-16,92.1,74.6,61.2,63.7,57.4,35.7,89,61,16,30.15,30.00,2,0,4,0.00
2013-6-17,90.5,75.8,69.1,73.9,63.1,55.5,94,67,33,30.04,29.79,2,0,4,1.85
2013-6-18,91.9,75.0,69.4,76.7,69.1,56.5,100,85,31,29.99,29.77,4,0,8,0.19
2013-6-19,87.3,75.1,67.8,73.6,65.3,46.3,100,76,25,30.20,29.99,2,0,5,0.12
2013-6-20,91.6,73.3,63.5,68.8,58.5,35.3,100,67,17,30.32,30.20,2,0,4,0.04
2013-6-21,92.7,73.1,60.3,62.6,51.3,25.2,95,58,10,30.36,30.26,2,0,5,0.10
2013-6-22,88.3,80.0,70.2,68.6,61.3,52.1,92,55,31,30.30,30.20,2,0,4,0.21
2013-6-23,87.8,74.5,66.9,74.7,67.6,55.8,96,81,36,30.31,30.22,2,0,4,0.06
2013-6-24,86.0,72.8,67.6,73.7,69.8,65.5,100,91,58,30.31,30.22,2,0,8,0.00
2013-6-25,94.3,75.9,68.9,77.1,69.2,55.5,100,83,30,30.25,30.13,2,0,4,0.00
2013-6-26,97.5,78.6,70.0,76.2,69.2,49.6,100,78,20,30.16,30.01,2,0,4,0.03
2013-6-27,91.2,76.9,68.9,79.4,71.9,63.3,100,87,41,30.06,29.85,4,0,8,0.00
2013-6-28,99.7,81.5,73.2,75.0,68.2,39.6,99,71,14,29.87,29.71,2,0,4,0.00
2013-6-29,93.2,77.6,71.2,73.9,66.6,54.0,94,71,27,30.07,29.74,7,0,11,0.74
2013-6-30,87.6,74.7,67.3,76.7,71.7,63.9,100,91,60,30.08,29.93,2,0,4,0.01
2013-7-1,85.5,77.6,73.0,76.7,71.6,67.4,100,82,58,30.21,30.11,0,0,3,0.00
2013-7-2,79.2,73.4,71.4,76.2,72.1,68.6,100,96,76,30.37,30.20,0,0,2,0.00
2013-7-3,82.6,75.3,72.3,79.8,74.7,72.0,100,98,85,30.44,30.35,0,0,1,0.00
2013-7-4,90.0,78.2,72.3,79.9,71.9,60.9,100,84,38,30.47,30.38,1,0,4,0.18
2013-7-5,92.1,76.9,72.9,78.8,73.6,63.7,100,91,42,30.48,30.38,2,0,4,5.58
2013-7-6,94.3,76.5,70.0,80.0,73.7,66.7,100,92,46,30.46,30.33,2,0,4,0.58
2013-7-7,93.6,77.8,70.3,78.3,73.1,67.0,100,87,43,30.41,30.29,2,0,7,0.71
2013-7-8,92.8,77.5,71.4,79.3,73.6,65.0,100,89,42,30.41,30.33,2,0,2,0.06
2013-7-9,92.8,78.8,71.6,80.0,73.0,61.2,100,85,36,30.39,30.29,2,0,4,1.68
2013-7-10,93.9,77.5,70.5,78.3,73.7,64.9,100,90,45,30.35,30.18,2,0,6,0.00
2013-7-11,86.0,74.7,70.7,81.4,73.7,70.4,100,97,77,30.20,30.10,1,0,5,0.00
2013-7-12,81.1,73.8,69.3,80.9,73.5,69.0,99,99,99,30.20,30.10,2,0,5,0.03
2013-7-13,87.6,74.3,68.9,78.9,73.2,68.6,100,97,62,30.32,30.22,2,0,7,0.58
2013-7-14,93.0,77.3,71.1,81.8,74.3,63.8,100,92,41,30.48,30.31,2,0,7,0.00
2013-7-15,96.6,78.3,68.5,80.7,71.9,53.9,100,85,28,30.52,30.44,1,0,4,0.00
2013-7-16,100.4,79.7,68.2,81.1,71.4,51.2,100,81,22,30.52,30.42,1,0,2,0.00
2013-7-17,89.8,77.3,71.2,83.4,75.2,70.9,100,94,64,30.46,30.33,1,0,3,0.00
2013-7-18,91.0,73.2,67.8,82.2,71.7,67.5,99,96,56,30.40,30.35,1,0,2,0.00
2013-7-20,94.1,79.2,73.0,79.2,74.6,64.6,100,88,38,30.28,30.15,2,0,4,0.00
2013-7-21,93.0,78.2,73.2,79.0,74.8,70.2,100,91,49,30.25,30.13,1,0,3,0.00
2013-7-22,92.3,77.5,71.6,78.0,73.6,68.6,100,89,48,30.21,30.07,1,0,3,0.00
2013-7-23,93.0,79.9,73.4,77.1,72.0,60.5,100,81,37,30.09,29.99,2,0,3,0.00
2013-7-24,97.5,78.1,70.0,81.0,71.3,50.4,100,85,21,30.07,29.97,1,0,2,0.00
2013-7-25,93.2,75.7,69.1,75.9,70.5,56.2,100,87,29,30.24,30.02,1,0,3,0.00
2013-7-26,94.6,75.5,65.8,76.7,68.1,46.9,99,83,20,30.32,30.23,1,0,4,0.00
2013-7-27,83.5,74.3,70.2,80.1,73.6,69.9,100,98,76,30.27,30.15,2,0,4,0.00
2013-7-28,93.9,77.1,69.6,82.5,73.6,61.4,100,91,34,30.22,30.14,1,0,4,0.00
2013-7-29,96.8,78.4,69.8,78.6,71.2,41.6,100,83,21,30.37,30.23,2,0,4,0.00
2013-7-30,94.1,76.3,68.4,76.3,68.2,37.7,100,81,17,30.43,30.34,2,0,4,0.00
2013-7-31,83.7,74.7,70.3,81.1,74.1,70.0,100,98,83,30.38,30.22,1,0,3,0.00
2013-8-1,87.3,76.1,71.1,83.1,75.3,70.8,100,97,76,30.23,30.10,1,0,2,0.00
2013-8-2,93.6,76.7,68.2,83.1,74.7,67.9,100,94,52,30.26,30.15,1,0,3,0.00
2013-8-3,91.2,78.9,71.6,84.8,75.8,70.3,100,91,52,30.26,30.16,2,0,3,0.00
2013-8-4,92.7,76.3,68.2,80.9,70.7,48.0,100,86,26,30.25,30.16,2,0,4,0.00
2013-8-5,94.1,75.5,66.7,76.4,66.3,28.1,100,80,11,30.30,30.20,1,0,3,0.00
2013-8-6,73.4,70.0,68.4,73.2,69.7,68.1,99,99,99,30.29,30.21,1,0,3,0.00
2013-8-7,89.4,75.5,68.9,81.6,73.0,60.8,100,93,40,30.32,30.23,0,0,3,0.00
2013-8-8,89.6,77.3,71.2,82.8,75.9,70.9,99,96,65,30.30,30.22,1,0,3,0.00
2013-8-9,96.6,79.2,72.7,84.3,77.2,71.9,100,94,46,30.32,30.22,1,0,3,0.00
2013-8-10,97.7,80.5,73.2,84.7,76.8,67.1,100,90,38,30.34,30.26,1,0,4,0.00
2013-8-11,99.5,79.7,71.8,83.7,74.9,55.1,100,88,25,30.35,30.25,2,0,4,0.00
2013-8-12,97.7,79.2,70.0,86.1,76.3,67.6,100,92,40,30.31,30.16,0,0,2,0.00
2013-8-13,96.1,79.3,70.9,84.9,76.1,68.3,100,91,47,30.21,30.03,2,0,4,0.00
2013-8-14,79.7,72.7,67.5,76.0,71.2,67.2,100,95,70,30.27,30.09,1,0,4,0.00
2013-8-15,74.8,67.5,61.3,70.1,63.3,49.4,100,88,43,30.36,30.27,2,0,6,0.00
2013-8-16,66.0,62.8,58.8,65.8,62.5,58.5,99,99,99,30.38,30.30,1,0,4,0.00
2013-8-17,68.9,65.1,62.4,68.6,64.9,62.1,99,99,99,30.39,30.33,1,0,4,0.00
2013-8-18,91.0,73.5,66.6,81.3,72.3,66.3,100,97,56,30.44,30.33,0,0,4,0.00
2013-8-19,77.7,72.3,68.7,77.5,72.1,68.5,99,99,99,30.41,29.57,0,0,2,0.00
2013-8-20,82.2,73.5,66.7,82.0,73.2,66.5,99,99,97,30.41,30.33,1,0,4,0.00
2013-8-21,89.4,76.1,70.7,84.5,75.4,70.4,100,98,78,30.45,30.33,1,0,4,0.00
2013-8-22,91.6,80.6,70.0,84.3,77.9,69.7,100,92,57,30.39,30.23,0,0,2,0.00
2013-8-23,90.9,76.1,67.6,83.4,74.1,66.0,100,94,47,30.29,30.17,0,0,3,0.00
2013-8-24,86.2,73.0,64.8,72.0,66.7,39.1,99,84,19,30.48,30.27,1,0,4,0.01
2013-8-25,82.9,68.4,58.6,71.2,60.7,38.9,100,82,24,30.61,30.48,1,0,8,0.01
2013-8-26,82.8,66.7,53.2,73.3,61.1,47.6,100,86,33,30.55,30.34,0,0,2,0.01
2013-8-27,87.3,72.0,59.5,80.3,69.2,59.3,100,92,53,30.38,30.21,0,0,3,0.00
2013-8-28,88.0,76.4,66.0,84.1,75.0,65.7,100,96,78,30.26,30.15,0,0,4,0.00
2013-8-29,90.3,79.1,71.8,85.9,76.3,70.3,100,92,57,30.19,30.10,0,0,2,0.00
2013-8-30,85.8,75.8,69.6,77.6,71.4,55.2,100,89,37,30.29,30.17,1,0,4,0.00
2013-8-31,86.7,75.3,65.5,82.9,74.1,65.2,100,96,78,30.21,30.08,0,0,4,0.00
2013-9-1,89.2,77.7,70.0,83.9,75.8,69.7,100,94,69,30.16,30.03,0,0,4,0.00
2013-9-2,88.0,77.3,70.0,83.2,75.8,69.7,100,95,69,30.14,30.04,1,0,4,0.00
2013-9-3,88.7,77.5,72.0,84.2,75.8,70.0,100,95,55,30.17,30.06,0,0,4,0.00
2013-9-4,86.4,73.8,63.7,79.0,69.9,55.4,100,90,35,30.30,30.19,1,0,4,0.00
2013-9-5,87.6,74.0,63.3,81.4,70.6,62.1,100,91,44,30.34,30.25,0,0,2,0.00
2013-9-6,83.5,70.9,62.2,70.8,61.2,36.6,100,79,19,30.40,30.29,0,0,2,0.00
2013-9-7,84.4,69.8,59.7,74.9,65.4,49.4,100,88,30,30.36,30.21,0,0,1,0.00
2013-9-8,85.8,71.8,60.3,79.0,68.1,60.0,100,90,47,30.22,30.14,0,0,1,0.00
2013-9-9,87.6,73.8,63.3,79.1,66.2,36.7,100,84,17,30.36,30.21,0,0,4,0.00
2013-9-10,87.3,74.4,63.7,81.9,69.5,58.2,100,87,43,30.46,30.36,0,0,3,0.00
2013-9-11,86.7,72.1,62.2,79.6,69.7,62.0,100,93,49,30.45,30.30,0,0,2,0.00
2013-9-12,88.9,75.0,63.7,78.1,68.7,57.3,100,84,35,30.32,30.08,0,0,3,0.00
2013-9-13,86.2,73.9,64.8,75.3,61.1,22.1,100,75,10,30.11,29.99,0,0,3,0.00
2013-9-14,78.6,67.7,59.9,65.1,49.6,27.0,100,59,15,30.32,30.11,1,0,6,0.00
2013-9-15,84.0,69.2,57.9,75.3,64.0,45.6,100,87,29,30.43,30.31,1,0,4,0.00
2013-9-16,86.4,75.5,67.6,80.1,68.9,44.1,100,85,24,30.36,30.25,0,0,2,0.00
2013-9-17,77.4,70.0,61.7,71.2,58.4,36.6,100,71,24,30.51,30.37,1,0,6,0.00
2013-9-18,76.3,63.5,53.8,66.2,51.9,25.1,100,76,15,30.52,30.38,2,0,4,0.01
2013-9-19,77.4,65.0,54.0,70.7,60.9,52.9,100,89,43,30.42,30.31,0,0,2,0.00
2013-9-20,85.8,69.9,59.0,76.3,67.5,58.7,100,93,46,30.32,30.14,0,0,2,0.01
2013-9-21,76.8,70.4,63.0,76.3,70.1,62.7,100,99,94,30.17,29.88,1,0,4,0.00
2013-9-22,80.6,67.6,58.8,70.0,59.7,37.9,100,82,25,30.11,29.85,1,0,4,0.00
2013-9-23,77.2,63.2,54.7,67.5,57.8,40.9,100,86,29,30.28,30.13,1,0,3,0.00
2013-9-24,79.5,64.0,52.3,68.9,58.3,43.7,100,86,30,30.31,30.15,1,0,4,0.00
2013-9-25,68.9,64.2,61.2,68.6,64.0,60.9,99,99,99,30.17,30.08,0,0,2,0.00
2013-9-26,77.9,66.1,57.6,70.2,60.0,38.0,100,85,30,30.23,30.10,1,0,4,0.00
2013-9-27,78.3,61.8,50.7,67.1,53.0,25.1,100,80,15,30.39,30.25,1,0,6,0.00
2013-9-28,76.1,60.3,50.2,63.1,48.7,24.4,100,76,15,30.47,30.37,2,0,7,0.00
2013-9-29,75.2,61.2,50.5,66.5,53.9,29.3,100,83,19,30.40,30.26,1,0,4,0.01
2013-9-30,78.3,61.2,49.6,68.6,52.8,26.2,99,82,15,30.33,30.23,0,0,2,0.01
2013-10-1,82.6,63.5,49.5,71.3,55.3,30.7,100,82,19,30.37,30.26,1,0,4,0.01
2013-10-2,84.4,65.8,52.0,73.6,59.3,42.0,100,85,24,30.38,30.28,0,0,2,0.00
2013-10-3,84.6,68.1,56.8,75.6,60.3,35.1,100,83,21,30.37,30.28,1,0,2,0.00
2013-10-4,87.1,68.3,56.7,76.2,61.5,33.8,100,85,20,30.38,30.28,1,0,4,0.00
2013-10-5,86.9,70.0,57.0,78.0,62.6,40.6,99,83,20,30.36,30.24,0,0,1,0.00
2013-10-6,84.4,69.4,58.1,77.1,65.0,56.1,100,88,42,30.29,30.13,0,0,3,0.00
2013-10-7,77.9,72.3,63.7,77.7,72.1,63.4,99,99,99,30.19,30.05,1,0,3,0.00
2013-10-8,63.3,59.7,56.3,62.9,56.1,50.1,100,89,67,30.40,30.19,2,0,6,0.00
2013-10-9,75.2,62.0,52.3,61.0,49.9,28.1,100,71,21,30.42,30.32,3,0,8,0.00
2013-10-10,72.3,64.6,51.6,67.1,60.2,51.3,100,87,57,30.33,30.20,1,0,4,0.00
2013-10-11,82.2,69.3,61.9,69.8,58.1,30.0,100,77,16,30.22,30.13,2,0,4,0.00
2013-10-12,77.4,66.2,55.9,71.3,63.6,55.7,100,92,54,30.30,30.19,2,0,3,0.00
2013-10-13,72.0,66.9,64.0,69.5,66.2,63.8,100,98,87,30.40,30.29,1,0,4,0.00
2013-10-14,67.6,64.4,61.5,67.4,64.2,61.2,99,99,99,30.44,30.36,2,0,4,0.00
2013-10-15,77.4,64.8,56.1,63.0,51.2,13.6,100,75,10,30.40,30.26,2,0,4,0.00
2013-10-16,77.4,62.3,50.4,70.4,56.0,47.8,99,84,40,30.30,30.17,1,0,2,0.00
2013-10-17,75.0,65.4,58.8,72.2,64.2,58.5,100,96,79,30.20,30.10,1,0,4,0.00
2013-10-18,68.9,64.4,59.0,65.9,62.8,58.7,100,95,75,30.25,30.12,1,0,3,0.00
2013-10-19,70.9,63.2,57.2,69.5,61.2,56.0,100,94,68,30.19,30.07,2,0,4,0.00
2013-10-20,70.7,55.4,45.5,54.8,39.3,8.1,100,70,10,30.32,30.14,2,0,4,0.01
2013-10-21,75.4,54.5,39.2,58.7,42.9,12.2,100,77,10,30.37,30.24,2,0,4,0.01
2013-10-22,65.5,58.6,53.2,65.0,58.4,53.0,99,99,99,30.26,30.05,0,0,2,0.00
2013-10-23,72.9,59.4,46.6,59.4,32.0,-2.6,100,54,10,30.25,29.96,2,0,7,0.00
2013-10-24,63.0,46.8,31.8,49.3,25.7,-1.2,100,61,10,30.42,30.26,2,0,4,0.01
2013-10-25,60.1,48.3,38.1,47.6,24.7,-4.0,100,58,10,30.56,30.38,2,0,4,0.00
2013-10-26,63.5,42.9,27.0,42.2,20.4,-2.4,100,60,10,30.59,30.34,2,0,7,0.01
2013-10-27,74.7,50.4,34.3,50.6,32.7,8.4,100,69,10,30.36,30.27,2,0,4,0.01
2013-10-28,67.1,53.6,44.2,64.0,52.6,44.0,100,97,74,30.48,30.34,2,0,5,0.00
2013-10-29,77.9,57.8,45.1,65.8,47.9,14.9,100,79,10,30.56,30.45,2,0,4,0.01
2013-10-30,78.3,62.2,47.5,65.2,48.4,19.5,100,74,13,30.53,30.38,2,0,4,0.01
2013-10-31,73.4,62.2,50.7,68.6,56.8,48.1,100,85,41,30.41,30.17,1,0,3,0.00
2013-11-1,71.6,65.8,58.3,70.9,65.5,58.0,100,99,94,30.15,29.92,2,0,6,0.00
2013-11-2,73.9,59.1,45.7,64.1,45.8,7.2,100,78,10,30.19,29.96,3,0,8,0.00
2013-11-3,67.8,48.1,35.2,51.5,29.0,1.7,100,67,10,30.55,30.20,2,0,8,0.00
2013-11-4,62.4,45.5,33.1,44.7,24.8,-1.1,99,63,10,30.73,30.55,2,0,5,0.01
2013-11-5,59.4,48.4,33.3,51.0,39.3,30.3,100,75,36,30.74,30.63,2,0,7,0.00
2013-11-6,73.9,59.6,47.8,59.4,47.5,16.0,100,74,12,30.63,30.36,2,0,5,0.01
2013-11-7,71.4,57.8,47.1,65.1,45.3,0.2,100,74,10,30.33,30.17,2,0,7,0.00
2013-11-8,64.4,45.0,32.4,39.0,18.8,-6.9,100,50,10,30.54,30.35,2,0,6,0.01
2013-11-9,63.1,44.9,28.2,40.8,18.2,-2.0,100,52,10,30.60,30.44,2,0,4,0.01
2013-11-10,73.0,51.4,37.2,45.3,27.5,3.6,100,56,10,30.45,30.33,3,0,6,0.01
2013-11-11,64.9,45.8,32.9,37.8,19.9,-4.4,100,54,10,30.57,30.40,2,0,4,0.01
2013-11-12,68.9,43.7,30.4,44.1,23.9,-5.8,100,66,10,30.64,30.28,5,0,11,0.01
2013-11-13,48.4,34.4,23.4,23.6,6.8,-15.0,88,42,10,30.76,30.65,3,0,6,0.00
2013-11-14,57.6,36.3,19.8,32.8,10.1,-11.2,95,50,10,30.71,30.55,2,0,8,0.01
2013-11-15,63.1,46.6,26.8,53.4,31.8,1.4,100,66,10,30.56,30.40,2,0,4,0.00
2013-11-16,68.2,57.7,51.1,57.8,53.2,50.3,100,87,54,30.49,30.40,2,0,4,0.01
2013-11-17,73.6,60.9,48.6,66.6,56.6,48.3,100,88,48,30.43,30.16,2,0,6,0.00
2013-11-18,80.4,68.4,51.3,74.1,39.8,0.5,99,54,10,30.19,30.05,3,0,7,0.00
2013-11-19,62.8,49.3,37.0,23.0,5.3,-9.1,52,19,10,30.47,30.20,4,0,7,0.01
2013-11-20,58.5,46.5,33.8,29.0,12.8,-4.2,71,31,10,30.63,30.46,4,0,8,0.01
2013-11-21,62.1,52.6,44.8,45.6,27.5,15.9,71,40,17,30.68,30.57,2,0,6,0.00
2013-11-22,70.7,60.4,53.6,63.0,53.6,44.2,100,79,51,30.59,30.34,2,0,4,0.00
2013-11-23,66.2,58.4,43.3,62.8,41.7,-5.9,100,65,10,30.39,30.27,2,0,7,0.15
2013-11-24,47.8,37.0,24.4,-0.3,-13.2,-22.4,32,11,10,30.73,30.40,4,0,8,0.00
2013-11-25,46.6,32.6,17.4,13.9,-3.7,-20.4,75,30,10,30.78,30.57,2,0,5,0.00
2013-11-26,64.6,42.6,33.1,64.3,28.4,-13.8,100,74,10,30.54,29.84,4,0,8,0.00
2013-11-27,47.1,41.5,27.9,46.9,37.4,5.1,100,88,31,30.38,29.75,3,0,8,0.00
2013-11-28,48.4,31.9,19.4,28.0,11.6,-10.0,100,59,10,30.69,30.42,2,0,4,0.00
2013-11-29,57.4,35.8,21.6,40.3,13.9,-10.1,100,59,10,30.79,30.67,2,0,6,0.00
2013-11-30,51.4,37.5,26.6,26.6,12.9,-9.3,84,49,10,30.83,30.60,3,0,7,0.13
2013-12-1,57.6,43.3,30.9,39.6,26.3,-0.8,97,63,10,30.58,30.26,2,0,3,0.00
2013-12-2,64.6,47.1,33.3,49.5,28.0,1.3,100,64,10,30.25,30.04,2,0,4,0.01
2013-12-3,62.4,51.8,42.1,55.4,46.4,31.1,100,85,32,30.18,30.09,3,0,4,0.00
2013-12-4,65.7,58.6,53.4,64.9,58.3,53.1,100,99,95,30.30,30.17,2,0,3,0.00
2013-12-5,67.6,63.4,58.5,67.4,63.1,58.2,99,99,99,30.36,30.26,2,0,5,0.00
2013-12-6,77.9,69.5,61.7,69.7,64.8,54.7,100,87,45,30.32,30.21,5,1,10,0.00
2013-12-7,68.4,56.6,47.3,68.1,53.6,37.3,100,90,68,30.62,30.24,4,0,14,0.00
2013-12-8,46.8,39.5,35.8,39.3,36.2,26.1,100,89,48,30.63,30.51,3,0,6,0.00
2013-12-9,47.1,41.5,36.0,46.9,41.2,35.7,99,99,99,30.49,30.30,2,0,3,0.00
2013-12-10,54.7,47.6,31.5,54.2,44.5,14.0,100,91,27,30.53,30.13,2,0,6,0.00
2013-12-11,55.0,34.0,22.5,42.2,21.6,-4.2,99,75,10,30.67,30.52,2,0,4,0.00
2013-12-12,53.1,34.5,23.5,33.4,13.0,-13.4,100,59,10,30.63,30.49,2,0,4,0.00
2013-12-13,55.6,36.0,20.5,35.8,14.5,-9.0,100,58,10,30.60,30.48,4,0,6,0.00
2013-12-14,53.4,44.1,37.8,53.2,41.9,31.0,100,92,68,30.48,30.03,4,0,12,0.00
2013-12-15,59.2,45.9,32.7,51.5,33.0,-2.2,99,73,10,30.33,29.95,4,0,8,0.00
2013-12-16,59.2,39.2,25.2,39.6,20.7,-2.6,100,66,10,30.41,30.32,4,0,7,0.00
2013-12-17,64.6,45.9,27.5,39.6,14.9,-3.6,100,50,10,30.37,30.19,6,1,11,0.00
2013-12-18,56.7,39.9,27.1,29.9,11.4,-12.3,87,42,10,30.51,30.27,3,0,6,0.01
2013-12-19,63.3,40.7,23.7,36.5,13.5,-7.3,97,49,10,30.56,30.45,3,0,5,0.01
2013-12-20,66.6,49.4,33.6,47.4,36.9,22.8,100,67,20,30.48,30.37,4,0,7,0.01
2013-12-21,74.3,58.7,41.2,69.1,52.2,40.9,100,83,41,30.39,30.25,4,0,8,0.01
2013-12-22,77.0,69.2,63.5,73.7,66.7,59.3,100,93,56,30.32,30.23,4,1,11,0.00
2013-12-23,65.3,61.0,50.5,65.0,60.7,48.3,99,99,92,30.37,30.23,2,0,5,0.00
2013-12-24,57.0,43.7,32.2,44.3,9.8,-18.2,90,34,10,30.65,30.36,3,0,6,0.00
2013-12-25,45.3,24.6,0.0,14.4,-4.8,-21.3,49,19,10,30.75,30.60,2,0,6,0.00
2013-12-26,54.7,40.1,29.3,34.0,11.1,-10.1,94,41,10,30.60,30.45,3,0,4,0.00
2013-12-27,55.4,36.7,25.0,31.3,12.6,-11.1,96,53,10,30.68,30.56,2,0,7,0.00
2013-12-28,59.0,39.7,21.9,43.7,14.7,-6.1,100,52,10,30.63,30.32,2,0,4,0.00
2013-12-29,51.6,45.7,37.2,51.4,45.4,37.0,99,99,87,30.32,29.99,4,0,8,0.00
2013-12-30,55.0,45.5,34.9,52.4,41.2,34.6,100,87,49,30.35,30.17,2,0,3,0.00
2013-12-31,53.8,43.4,32.0,45.6,25.2,-6.3,99,65,10,30.58,30.32,3,0,6,0.00
2014-1-1,51.3,39.3,29.3,39.8,21.1,-5.5,100,65,10,30.61,30.39,2,0,4,0.00
2014-1-2,49.8,44.6,38.7,48.9,44.0,36.5,100,98,89,30.36,29.86,4,0,8,0.00